Location: Beugnon
(47.6222°N, 3.7850°E)
Time: 23:29:38
(UTC+00:00)

ERBS - Pass Details

Date: 09 April 2020
Orbit: 410 x 426 km, 57.0° (Epoch: 27 May)

Event Time Altitude Azimuth Distance (km) Brightness Sun altitude
Rises 20:08:52 0° 308° (NW) 2,394 7.9 -16.6°
Reaches altitude 10° 20:10:59 10° 310° (NW) 1,526 6.4 -16.9°
Maximum altitude 20:14:23 73° 36° (NE) 452 2.3 -17.4°
Enters shadow 20:15:06 51° 103° (ESE) 543 2.4 -17.5°
